Regional Weather Roundup
Issued by NWS Little Rock, AR

Home | Current Version | Previous Version | Text Only | Print | Product List | Glossary On
Versions: 1 2 3 4 5 6 7 8 9 10 11 12 13 14 15 16 17 18 19 20 21 22 23 24 25 26 27 28 29 30 31 32 33 34 35 36 37 38 39 40 41 42 43 44 45 46 47 48 49 50
000
ASUS44 KLZK 190405
RWRLZK

WEATHER ROUNDUP FOR ARKANSAS
NATIONAL WEATHER SERVICE LITTLE ROCK AR
1100 PM CDT THU SEP 18 2014

NOTE: "FAIR" INDICATES FEW OR NO CLOUDS BELOW 12,000 FEET WITH NO
SIGNIFICANT WEATHER AND/OR OBSTRUCTIONS TO VISIBILITY.

ARZ001-003-010-029-190500-
NORTHWEST ARKANSAS

CITY           SKY/WX    TMP DP  RH WIND       PRES   REMARKS
FAYETTEVILLE   MOCLDY    66  64  93 CALM      30.02R
FORT SMITH     PTCLDY    71  67  87 NE8       29.98R
HARRISON       CLOUDY    64  63  96 SE7       30.06S FOG
BENTONVILLE    CLEAR     64  61  88 E9        30.03S
ROGERS         CLOUDY    65  61  87 E12       30.04S
SILOAM SPGS    CLEAR     66  61  82 E5        30.02S
HIGHFILL       CLEAR     65  62  90 E7        30.02R
$$

ARZ004-005-016-190500-
NORTH CENTRAL ARKANSAS

CITY           SKY/WX    TMP DP  RH WIND       PRES   REMARKS
BATESVILLE     PTCLDY    64  61  88 CALM      30.03S
FLIPPIN        CLOUDY    64  61  88 CALM      30.04S
MTN HOME       PTCLDY    64  63  96 CALM      30.04S FOG
$$

ARZ040-041-190500-
WEST CENTRAL ARKANSAS

CITY           SKY/WX    TMP DP  RH WIND       PRES   REMARKS
MENA           CLEAR     70  68  94 CALM      30.01R
MOUNT IDA      CLOUDY    73  69  87 SE3       29.99R
$$

ARZ009-017-025-026-028-190500-
NORTHEAST ARKANSAS

CITY           SKY/WX    TMP DP  RH WIND       PRES   REMARKS
CORNING          N/A     64  63  94 NE7       30.04R
JONESBORO      CLOUDY    66  63  90 NE3       30.01S
NEWPORT        CLOUDY    66  64  93 N3        30.03R
WALNUT RIDGE   CLEAR     63  61  94 N6        30.02S
BLYTHEVILLE    CLOUDY    66  64  93 NE3       30.02S
$$

ARZ022-023-033-042-044-190500-
CENTRAL ARKANSAS

CITY           SKY/WX    TMP DP  RH WIND       PRES   REMARKS
LITTLE ROCK    CLOUDY    71  64  78 NE8       30.01S
N LITTLE ROCK  CLOUDY    69  66  90 NE8       30.01R
JACKSONVILLE   CLOUDY    70  65  83 NE8       30.01S
SEARCY         CLOUDY    69  63  81 NE5       30.03R
HOT SPRINGS    MOCLDY    73  68  84 E7        30.00R
RUSSELLVILLE   CLOUDY    70  64  81 E5        30.02R
CLINTON        CLOUDY    68  64  88 CALM      30.04S FOG
$$

ARZ036-190500-
EAST ARKANSAS

CITY           SKY/WX    TMP DP  RH WIND       PRES   REMARKS
WEST MEMPHIS   PTCLDY    70  66  87 NE6       29.99R
$$

ARZ050-053-066-070-073-190500-
SOUTHWEST ARKANSAS

CITY           SKY/WX    TMP DP  RH WIND       PRES   REMARKS
ARKADELPHIA    FAIR      74  71  90 NE3       29.98S
CAMDEN         MOCLDY    72  66  83 NE3       29.96S
TEXARKANA      CLOUDY    74  74 100 NE6       29.95S
EL DORADO      CLOUDY    74  71  91 N7        29.96R
DE QUEEN       PTCLDY    74  70  87 E7        29.95R
$$

ARZ056-057-069-190500-
SOUTHEAST ARKANSAS

CITY           SKY/WX    TMP DP  RH WIND       PRES   REMARKS
PINE BLUFF     PTCLDY    68  66  93 CALM      29.98S
STUTTGART      CLOUDY    70  64  83 N6        30.00R
MONTICELLO     CLEAR     70  67  90 E3        29.96F

$$




USA.gov is the U.S. government's official web portal to all federal, state and local government web resources and services.